| time (UTC) | temp F | wind direction | speed MPH | gust MPH | rain 1hr in | rain 24hr in | rain mn in | humidity % | barometer mb |
| 20260905000019 | 63 | 0.0 | 0.0 | 0.00 | 0.03 | 0.00 | 96 | 1003.2 | |
| 20260904235021 | 63 | 248 | 0.0 | 2.0 | 0.00 | 0.03 | 0.00 | 95 | 1003.1 |
| 20260904234037 | 63 | 0.0 | 0.0 | 0.00 | 0.03 | 0.00 | 95 | 1003.0 | |
| 20260904233018 | 63 | 0.0 | 0.0 | 0.00 | 0.03 | 0.00 | 95 | 1003.1 | |
| 20260904232019 | 63 | 0.0 | 0.0 | 0.00 | 0.03 | 0.00 | 95 | 1002.9 | |
| 20260904231020 | 64 | 0.0 | 0.0 | 0.00 | 0.03 | 0.00 | 95 | 1003.1 | |
| 20260904230016 | 64 | 0.0 | 0.0 | 0.00 | 0.03 | 0.00 | 95 | 1002.8 | |
| 20260904225017 | 64 | 0.0 | 0.0 | 0.00 | 0.03 | 0.00 | 95 | 1003.2 | |
| 20260904224019 | 64 | 0.0 | 0.0 | 0.00 | 0.03 | 0.00 | 94 | 1003.0 | |
| 20260904223020 | 64 | 0.0 | 0.0 | 0.02 | 0.03 | 0.00 | 94 | 1002.7 | |
| 20260904222016 | 64 | 0.0 | 0.0 | 0.03 | 0.03 | 0.00 | 94 | 1002.9 | |
| 20260904221017 | 65 | 0.0 | 0.0 | 0.03 | 0.03 | 0.00 | 94 | 1002.8 | |
| 20260904220019 | 65 | 0.0 | 0.0 | 0.03 | 0.03 | 0.00 | 93 | 1003.0 | |
| 20260904215020 | 65 | 291 | 0.0 | 1.0 | 0.03 | 0.03 | 0.03 | 92 | 1002.9 |
| 20260904214016 | 65 | 263 | 1.0 | 4.0 | 0.03 | 0.03 | 0.03 | 92 | 1002.9 |
| 20260904213017 | 66 | 225 | 1.0 | 7.0 | 0.02 | 0.02 | 0.02 | 92 | 1002.9 |
| 20260904212018 | 67 | 314 | 1.0 | 3.0 | 0.00 | 0.00 | 0.00 | 91 | 1002.6 |
| 20260904211021 | 67 | 255 | 0.0 | 1.0 | 0.00 | 0.00 | 0.00 | 92 | 1002.4 |
| 20260904210016 | 67 | 315 | 0.0 | 2.0 | 0.00 | 0.00 | 0.00 | 91 | 1002.4 |
| 20260904205017 | 67 | 186 | 0.0 | 4.0 | 0.00 | 0.00 | 0.00 | 91 | 1002.3 |
| 20260904204018 | 67 | 191 | 1.0 | 5.0 | 0.00 | 0.00 | 0.00 | 91 | 1002.3 |
| 20260904203020 | 67 | 218 | 1.0 | 5.0 | 0.00 | 0.00 | 0.00 | 91 | 1002.2 |
| 20260904202016 | 67 | 256 | 0.0 | 2.0 | 0.00 | 0.00 | 0.00 | 91 | 1002.2 |
| 20260904201017 | 67 | 326 | 0.0 | 2.0 | 0.00 | 0.00 | 0.00 | 91 | 1002.2 |
| 20260904200018 | 67 | 239 | 1.0 | 3.0 | 0.00 | 0.00 | 0.00 | 90 | 1002.0 |
| 20260904195019 | 68 | 233 | 1.0 | 4.0 | 0.00 | 0.00 | 0.00 | 89 | 1002.0 |
| 20260904194015 | 69 | 229 | 2.0 | 7.0 | 0.00 | 0.00 | 0.00 | 87 | 1001.9 |
| 20260904193017 | 70 | 270 | 3.0 | 9.0 | 0.00 | 0.00 | 0.00 | 85 | 1001.8 |
| 20260904192018 | 70 | 24 | 2.0 | 6.0 | 0.00 | 0.00 | 0.00 | 84 | 1001.5 |
| 20260904191039 | 71 | 0 | 3.0 | 11.0 | 0.00 | 0.00 | 0.00 | 82 | 1001.3 |
| 20260904190040 | 73 | 358 | 4.0 | 10.0 | 0.00 | 0.00 | 0.00 | 76 | 1000.9 |
| 20260904185016 | 74 | 206 | 1.0 | 5.0 | 0.00 | 0.00 | 0.00 | 73 | 1000.6 |
| 20260904184018 | 74 | 9 | 1.0 | 9.0 | 0.00 | 0.00 | 0.00 | 73 | 1000.5 |
| 20260904183039 | 74 | 287 | 1.0 | 8.0 | 0.00 | 0.00 | 0.00 | 72 | 1000.4 |
| 20260904182020 | 75 | 243 | 0.0 | 4.0 | 0.00 | 0.00 | 0.00 | 72 | 1000.4 |
| 20260904181016 | 75 | 240 | 1.0 | 2.0 | 0.00 | 0.00 | 0.00 | 71 | 1000.4 |
| 20260904180018 | 75 | 301 | 1.0 | 6.0 | 0.00 | 0.00 | 0.00 | 71 | 1000.2 |
| 20260904175019 | 75 | 221 | 1.0 | 4.0 | 0.00 | 0.00 | 0.00 | 70 | 1000.2 |
| 20260904174020 | 75 | 197 | 1.0 | 4.0 | 0.00 | 0.00 | 0.00 | 70 | 1000.3 |
| 20260904173016 | 76 | 205 | 1.0 | 8.0 | 0.00 | 0.00 | 0.00 | 69 | 1000.3 |
| 20260904172038 | 77 | 250 | 2.0 | 6.0 | 0.00 | 0.00 | 0.00 | 68 | 1000.2 |
| 20260904171024 | 78 | 215 | 2.0 | 9.0 | 0.00 | 0.00 | 0.00 | 68 | 1000.2 |
| 20260904170040 | 78 | 191 | 2.0 | 7.0 | 0.00 | 0.00 | 0.00 | 67 | 1000.2 |
| 20260904165016 | 79 | 330 | 4.0 | 9.0 | 0.00 | 0.00 | 0.00 | 65 | 1000.1 |
| 20260904164017 | 79 | 238 | 4.0 | 10.0 | 0.00 | 0.00 | 0.00 | 64 | 1000.0 |
| 20260904163018 | 79 | 218 | 3.0 | 8.0 | 0.00 | 0.00 | 0.00 | 66 | 1000.0 |
| 20260904162020 | 79 | 226 | 3.0 | 13.0 | 0.00 | 0.00 | 0.00 | 65 | 999.9 |
| 20260904161036 | 79 | 220 | 4.0 | 11.0 | 0.00 | 0.00 | 0.00 | 65 | 999.9 |
| 20260904160017 | 79 | 236 | 3.0 | 11.0 | 0.00 | 0.00 | 0.00 | 66 | 999.8 |
| 20260904155019 | 79 | 200 | 3.0 | 10.0 | 0.00 | 0.00 | 0.00 | 66 | 999.9 |
| 20260904154019 | 79 | 223 | 4.0 | 9.0 | 0.00 | 0.00 | 0.00 | 65 | 999.8 |
| 20260904153016 | 80 | 206 | 3.0 | 10.0 | 0.00 | 0.00 | 0.00 | 65 | 999.7 |
| 20260904152017 | 80 | 203 | 3.0 | 6.0 | 0.00 | 0.00 | 0.00 | 65 | 999.7 |
| 20260904151018 | 80 | 226 | 4.0 | 12.0 | 0.00 | 0.00 | 0.00 | 65 | 999.6 |
| 20260904150019 | 79 | 236 | 2.0 | 7.0 | 0.00 | 0.00 | 0.00 | 67 | 999.6 |
| 20260904145035 | 79 | 247 | 4.0 | 10.0 | 0.00 | 0.00 | 0.00 | 65 | 999.6 |
| 20260904144017 | 80 | 247 | 3.0 | 8.0 | 0.00 | 0.00 | 0.00 | 66 | 999.6 |
| 20260904143018 | 81 | 199 | 3.0 | 9.0 | 0.00 | 0.00 | 0.00 | 65 | 999.6 |
| 20260904142039 | 80 | 257 | 2.0 | 11.0 | 0.00 | 0.00 | 0.00 | 65 | 999.6 |
| 20260904141035 | 80 | 233 | 4.0 | 11.0 | 0.00 | 0.00 | 0.00 | 63 | 999.6 |
| 20260904140016 | 81 | 243 | 2.0 | 12.0 | 0.00 | 0.00 | 0.00 | 63 | 999.6 |
| 20260904135017 | 82 | 323 | 3.0 | 6.0 | 0.00 | 0.00 | 0.00 | 63 | 999.7 |
| 20260904134018 | 82 | 232 | 3.0 | 9.0 | 0.00 | 0.00 | 0.00 | 62 | 999.7 |
| 20260904133040 | 81 | 242 | 2.0 | 9.0 | 0.00 | 0.00 | 0.00 | 64 | 999.6 |
| 20260904132016 | 80 | 239 | 4.0 | 12.0 | 0.00 | 0.00 | 0.00 | 65 | 999.6 |
| 20260904131017 | 81 | 229 | 4.0 | 16.0 | 0.00 | 0.00 | 0.00 | 64 | 999.6 |
| 20260904130018 | 81 | 247 | 3.0 | 11.0 | 0.00 | 0.00 | 0.00 | 64 | 999.6 |
| 20260904125019 | 80 | 302 | 4.0 | 11.0 | 0.00 | 0.00 | 0.00 | 65 | 999.7 |
| 20260904124035 | 80 | 295 | 2.0 | 8.0 | 0.00 | 0.00 | 0.00 | 66 | 999.7 |
| 20260904123017 | 80 | 343 | 2.0 | 8.0 | 0.00 | 0.00 | 0.00 | 65 | 999.8 |
| 20260904122018 | 79 | 264 | 3.0 | 7.0 | 0.00 | 0.00 | 0.00 | 66 | 999.7 |
| 20260904121039 | 79 | 218 | 4.0 | 10.0 | 0.00 | 0.00 | 0.00 | 64 | 999.9 |
| 20260904120021 | 80 | 223 | 3.0 | 9.0 | 0.00 | 0.00 | 0.00 | 63 | 1000.0 |
| 20260904115017 | 80 | 229 | 4.0 | 13.0 | 0.00 | 0.00 | 0.00 | 62 | 999.9 |
| 20260904114018 | 81 | 236 | 3.0 | 12.0 | 0.00 | 0.00 | 0.00 | 64 | 999.7 |
| 20260904113019 | 81 | 219 | 4.0 | 13.0 | 0.00 | 0.00 | 0.00 | 62 | 999.7 |
| 20260904112040 | 81 | 220 | 2.0 | 8.0 | 0.00 | 0.00 | 0.00 | 64 | 999.7 |
| 20260904111037 | 81 | 223 | 4.0 | 10.0 | 0.00 | 0.00 | 0.00 | 63 | 999.6 |
| 20260904110018 | 81 | 199 | 2.0 | 10.0 | 0.00 | 0.00 | 0.00 | 64 | 999.6 |
| 20260904105019 | 80 | 219 | 4.0 | 12.0 | 0.00 | 0.00 | 0.00 | 64 | 999.6 |
| 20260904104020 | 80 | 196 | 5.0 | 11.0 | 0.00 | 0.00 | 0.00 | 65 | 999.6 |
| 20260904103016 | 80 | 226 | 3.0 | 11.0 | 0.00 | 0.00 | 0.00 | 66 | 999.8 |
| 20260904102017 | 79 | 240 | 4.0 | 10.0 | 0.00 | 0.00 | 0.00 | 68 | 999.8 |
| 20260904101018 | 79 | 249 | 3.0 | 10.0 | 0.00 | 0.00 | 0.00 | 70 | 999.9 |
| 20260904100020 | 78 | 205 | 3.0 | 7.0 | 0.00 | 0.00 | 0.00 | 72 | 999.9 |
| 20260904095016 | 77 | 204 | 4.0 | 11.0 | 0.00 | 0.00 | 0.00 | 72 | 1000.0 |
| 20260904094017 | 77 | 206 | 4.0 | 9.0 | 0.00 | 0.00 | 0.00 | 73 | 1000.0 |
| 20260904093018 | 76 | 203 | 4.0 | 9.0 | 0.00 | 0.00 | 0.00 | 74 | 1000.1 |
| 20260904092019 | 76 | 219 | 3.0 | 8.0 | 0.00 | 0.00 | 0.00 | 75 | 1000.0 |
| 20260904091016 | 75 | 219 | 3.0 | 9.0 | 0.00 | 0.00 | 0.00 | 76 | 1000.0 |
| 20260904090017 | 75 | 170 | 1.0 | 8.0 | 0.00 | 0.00 | 0.00 | 77 | 1000.0 |
| 20260904085038 | 74 | 192 | 1.0 | 4.0 | 0.00 | 0.00 | 0.00 | 79 | 999.9 |
| 20260904084019 | 73 | 194 | 3.0 | 8.0 | 0.00 | 0.00 | 0.00 | 79 | 1000.0 |
| 20260904083015 | 73 | 230 | 2.0 | 7.0 | 0.00 | 0.00 | 0.00 | 80 | 1000.0 |
| 20260904082036 | 72 | 202 | 2.0 | 6.0 | 0.00 | 0.00 | 0.00 | 81 | 1000.1 |
| 20260904081018 | 72 | 217 | 2.0 | 4.0 | 0.00 | 0.00 | 0.00 | 83 | 1000.1 |
| 20260904080019 | 71 | 198 | 2.0 | 4.0 | 0.00 | 0.00 | 0.00 | 84 | 1000.1 |
| 20260904075020 | 70 | 200 | 3.0 | 6.0 | 0.00 | 0.00 | 0.00 | 85 | 1000.1 |
| 20260904074017 | 69 | 197 | 2.0 | 4.0 | 0.00 | 0.00 | 0.00 | 88 | 1000.1 |
| 20260904073018 | 69 | 201 | 2.0 | 6.0 | 0.00 | 0.00 | 0.00 | 89 | 1000.2 |
| 20260904072019 | 68 | 226 | 1.0 | 6.0 | 0.00 | 0.00 | 0.00 | 92 | 1000.3 |
| 20260904071020 | 67 | 0.0 | 0.0 | 0.00 | 0.00 | 0.00 | 94 | 1000.3 | |
| 20260904070016 | 66 | 0.0 | 0.0 | 0.00 | 0.00 | 0.00 | 96 | 1000.3 | |
| 20260904065017 | 65 | 0.0 | 0.0 | 0.00 | 0.00 | 0.00 | 97 | 1000.4 | |
| 20260904064019 | 64 | 0.0 | 0.0 | 0.00 | 0.00 | 0.00 | 97 | 1000.3 | |
| 20260904063020 | 63 | 0.0 | 0.0 | 0.00 | 0.00 | 0.00 | 97 | 1000.3 | |
| 20260904062016 | 61 | 0.0 | 0.0 | 0.00 | 0.00 | 0.00 | 97 | 1000.3 | |
| 20260904061018 | 60 | 0.0 | 0.0 | 0.00 | 0.00 | 0.00 | 97 | 1000.4 | |
| 20260904060018 | 58 | 0.0 | 0.0 | 0.00 | 0.00 | 0.00 | 97 | 1000.5 | |
| 20260904055040 | 58 | 0.0 | 0.0 | 0.00 | 0.00 | 0.00 | 97 | 1000.4 | |
| 20260904054016 | 58 | 0.0 | 0.0 | 0.00 | 0.00 | 0.00 | 97 | 1000.4 | |
| 20260904053038 | 58 | 0.0 | 0.0 | 0.00 | 0.00 | 0.00 | 97 | 1000.5 | |
| 20260904052019 | 58 | 0.0 | 0.0 | 0.00 | 0.00 | 0.00 | 97 | 1000.6 | |
| 20260904051020 | 58 | 0.0 | 0.0 | 0.00 | 0.00 | 0.00 | 97 | 1000.7 | |
| 20260904050016 | 57 | 0.0 | 0.0 | 0.00 | 0.00 | 0.00 | 97 | 1000.7 | |
| 20260904045017 | 57 | 0.0 | 0.0 | 0.00 | 0.00 | 0.00 | 97 | 1000.8 | |
| 20260904044019 | 57 | 0.0 | 0.0 | 0.00 | 0.00 | 0.00 | 96 | 1000.6 | |
| 20260904043015 | 58 | 0.0 | 0.0 | 0.00 | 0.00 | 0.00 | 97 | 1000.6 | |
| 20260904042016 | 58 | 0.0 | 0.0 | 0.00 | 0.00 | 0.00 | 97 | 1000.6 | |
| 20260904041103 | 58 | 0.0 | 0.0 | 0.00 | 0.00 | 0.00 | 96 | 1000.7 | |
| 20260904040019 | 58 | 0.0 | 0.0 | 0.00 | 0.00 | 0.00 | 96 | 1000.7 | |
| 20260904035015 | 58 | 0.0 | 0.0 | 0.00 | 0.00 | 0.00 | 96 | 1000.6 | |
| 20260904034017 | 58 | 0.0 | 0.0 | 0.00 | 0.00 | 0.00 | 96 | 1000.8 | |
| 20260904033018 | 58 | 0.0 | 0.0 | 0.00 | 0.00 | 0.00 | 96 | 1000.9 | |
| 20260904032039 | 59 | 0.0 | 0.0 | 0.00 | 0.00 | 0.00 | 96 | 1000.9 | |
| 20260904031015 | 59 | 0.0 | 0.0 | 0.00 | 0.00 | 0.00 | 96 | 1000.8 | |
| 20260904030037 | 59 | 0.0 | 0.0 | 0.00 | 0.00 | 0.00 | 96 | 1000.8 | |
| 20260904025018 | 59 | 0.0 | 0.0 | 0.00 | 0.00 | 0.00 | 96 | 1000.8 | |
| 20260904024019 | 59 | 0.0 | 0.0 | 0.00 | 0.00 | 0.00 | 96 | 1000.9 | |
| 20260904023015 | 59 | 0.0 | 0.0 | 0.00 | 0.00 | 0.00 | 96 | 1001.0 | |
| 20260904022017 | 59 | 0.0 | 0.0 | 0.00 | 0.00 | 0.00 | 96 | 1001.1 | |
| 20260904021018 | 60 | 0.0 | 0.0 | 0.00 | 0.00 | 0.00 | 96 | 1001.2 | |
| 20260904020019 | 60 | 0.0 | 0.0 | 0.00 | 0.00 | 0.00 | 96 | 1001.2 | |
| 20260904015015 | 60 | 0.0 | 0.0 | 0.00 | 0.00 | 0.00 | 96 | 1001.4 | |
| 20260904014016 | 60 | 0.0 | 0.0 | 0.00 | 0.00 | 0.00 | 96 | 1001.5 | |
| 20260904013038 | 60 | 0.0 | 0.0 | 0.00 | 0.00 | 0.00 | 96 | 1001.6 | |
| 20260904012019 | 60 | 0.0 | 0.0 | 0.00 | 0.00 | 0.00 | 96 | 1001.8 | |
| 20260904011035 | 60 | 0.0 | 0.0 | 0.00 | 0.00 | 0.00 | 96 | 1001.8 | |
| 20260904010016 | 60 | 0.0 | 0.0 | 0.00 | 0.00 | 0.00 | 95 | 1002.0 | |
| 20260904005058 | 61 | 0.0 | 0.0 | 0.00 | 0.00 | 0.00 | 95 | 1002.1 | |
| 20260904004019 | 61 | 0.0 | 0.0 | 0.00 | 0.00 | 0.00 | 95 | 1002.3 | |
| 20260904003035 | 61 | 0.0 | 0.0 | 0.00 | 0.00 | 0.00 | 95 | 1002.3 | |
| 20260904002017 | 61 | 0.0 | 0.0 | 0.00 | 0.00 | 0.00 | 95 | 1002.5 | |
| 20260904001018 | 61 | 0.0 | 0.0 | 0.00 | 0.00 | 0.00 | 95 | 1002.6 |